[Date Prev][Date Next][Thread Prev][Thread Next] - [Date Index][Thread Index][Author Index]
MIR & ISS Keps 4-2
- Subject: [sarex] MIR & ISS Keps 4-2
- From: "Dr Dave Larsen [ PhD ]" <doc@xxxxxxxxxxx>
- Date: Fri, 2 Apr 1999 14:19:25 -0800
MIR
1 16609U 86017A 99092.17125663 .00038191 00000-0 26523-3 0 3553
2 16609 51.6645 13.5052 0011333 313.2807 46.7268 15.73952529749441
ISS (ZARYA)
1 25544U 98067A 99092.49635885 .00020314 00000-0 25780-3 0 4537
2 25544 51.5923 219.0615 0005144 305.8246 54.2197 15.59395079 20781
----
Via the sarex mailing list at AMSAT.ORG courtesy of AMSAT-NA.
To unsubscribe, send "unsubscribe sarex" to Majordomo@amsat.org
AMSAT Home